GW1573 Weather Reports


time (UTC)temp
C
wind
direction
speed
KPH
gust
KPH
rain 1hr
cm
rain 24hr
cm
rain mn
cm
humidity
%
barometer
mb
20260906132845 20 86 0.0 0.0 0.00 0.00 0.00 83 1016.9
20260906132413 20 79 1.6 1.6 0.00 0.00 0.00 89 1016.9
20260906131525 20 83 0.0 0.0 0.00 0.00 0.00 87 1016.5
20260906131110 19 68 1.6 3.2 0.00 0.00 0.00 86 1016.5
20260906125734 19 56 1.6 9.7 0.00 0.00 0.00 87 1016.2
20260906125246 19 53 3.2 3.2 0.00 0.00 0.00 88 1016.2
20260906124828 19 65 3.2 3.2 0.00 0.00 0.00 88 1016.2
20260906123924 19 62 0.0 1.6 0.00 0.00 0.00 89 1016.2
20260906123452 18 81 0.0 0.0 0.00 0.00 0.00 90 1016.2
20260906123021 18 56 0.0 0.0 0.00 0.00 0.00 91 1016.2
20260906122604 18 89 1.6 1.6 0.00 0.00 0.00 91 1015.9
20260906122148 18 60 1.6 3.2 0.00 0.00 0.00 93 1016.2
20260906121715 18 84 1.6 3.2 0.00 0.00 0.00 93 1016.2
20260906121241 17 45 4.8 4.8 0.00 0.00 0.00 94 1016.2
20260906115853 18 48 4.8 4.8 0.00 0.00 0.00 94 1015.9
20260906115421 18 35 3.2 4.8 0.00 0.00 0.00 94 1015.9
20260906114947 18 86 1.6 3.2 0.00 0.00 0.00 94 1015.5
20260906114532 18 60 3.2 4.8 0.00 0.00 0.00 94 1015.5
20260906114117 18 31 4.8 4.8 0.00 0.00 0.00 94 1015.5
20260906113615 18 79 1.6 1.6 0.00 0.00 0.00 95 1015.5
20260906112655 17 29 6.4 9.7 0.00 0.00 0.00 96 1015.5
20260906111739 18 50 1.6 3.2 0.00 0.00 0.00 96 1015.5
20260906111323 18 60 1.6 3.2 0.00 0.00 0.00 95 1015.2
20260906110906 18 69 0.0 1.6 0.00 0.00 0.00 96 1015.2
20260906110435 18 65 1.6 1.6 0.00 0.00 0.00 96 1015.2
20260906110021 18 82 1.6 1.6 0.00 0.00 0.00 96 1015.2
20260906105120 18 84 0.0 1.6 0.00 0.00 0.00 96 1015.2
20260906104650 18 81 0.0 0.0 0.00 0.00 0.00 96 1014.9
20260906104232 18 81 1.6 1.6 0.00 0.00 0.00 96 1014.9
20260906103815 18 70 0.0 1.6 0.00 0.00 0.00 96 1014.9
20260906103359 18 59 1.6 1.6 0.00 0.00 0.00 96 1015.2
20260906102441 18 53 0.0 0.0 0.00 0.00 0.00 96 1014.9
20260906102010 18 71 0.0 0.0 0.00 0.00 0.00 96 1014.9
20260906101125 18 69 0.0 1.6 0.00 0.00 0.00 96 1014.9
20260906100223 18 60 0.0 0.0 0.00 0.00 0.00 96 1014.5
20260906095751 18 63 1.6 1.6 0.00 0.00 0.00 96 1014.5
20260906095321 19 69 0.0 0.0 0.00 0.00 0.00 96 1014.5
20260906094902 19 69 1.6 1.6 0.00 0.00 0.00 95 1014.5
20260906093946 19 75 0.0 0.0 0.00 0.00 0.00 95 1014.5
20260906093529 19 12 4.8 4.8 0.00 0.00 0.00 96 1014.5
20260906093114 20 77 0.0 1.6 0.00 0.00 0.00 96 1014.5
20260906092656 20 76 4.8 6.4 0.00 0.00 0.00 96 1014.5
20260906091340 20 29 1.6 1.6 0.00 0.00 0.00 97 1014.5
20260906090908 20 72 0.0 0.0 0.00 0.00 0.00 97 1014.5
20260906090002 20 65 0.0 0.0 0.00 0.00 0.00 98 1014.5
20260906085530 20 80 0.0 0.0 0.00 0.00 0.00 98 1014.5
20260906085113 20 75 1.6 1.6 0.00 0.00 0.00 98 1014.2
20260906084642 20 62 1.6 3.2 0.00 0.00 0.00 98 1014.2
20260906084212 20 58 1.6 3.2 0.00 0.00 0.00 98 1014.5
20260906083739 20 58 3.2 4.8 0.00 0.00 0.00 98 1014.2
20260906083323 20 71 0.0 0.0 0.00 0.00 0.00 98 1014.2
20260906082904 20 75 1.6 1.6 0.00 0.00 0.00 99 1014.5
20260906082433 20 75 0.0 0.0 0.00 0.00 0.00 99 1014.5
20260906082002 20 82 0.0 0.0 0.00 0.00 0.00 99 1014.5
20260906081515 20 75 0.0 0.0 0.00 0.00 0.00 99 1014.5
20260906081044 20 22 3.2 4.8 0.00 0.00 0.00 99 1014.5
20260906080614 20 81 0.0 0.0 0.00 0.00 0.00 99 1014.5
20260906080144 20 58 0.0 0.0 0.00 0.00 0.00 99 1014.5
20260906075726 20 54 0.0 0.0 0.00 0.00 0.00 99 1014.5
20260906074837 20 69 1.6 1.6 0.00 0.00 0.00 99 1014.5
20260906074422 20 80 0.0 0.0 0.00 0.00 0.00 99 1014.5
20260906074004 20 67 1.6 1.6 0.00 0.00 0.00 99 1014.5
20260906073533 20 76 0.0 0.0 0.00 0.00 0.00 99 1014.5
20260906073116 20 80 0.0 0.0 0.00 0.00 0.00 99 1014.5
20260906072227 20 28 1.6 3.2 0.00 0.00 0.00 99 1014.5
20260906071756 20 74 0.0 0.0 0.00 0.00 0.00 99 1014.5
20260906071340 20 69 0.0 0.0 0.00 0.00 0.00 99 1014.5
20260906070422 20 48 0.0 1.6 0.00 0.00 0.00 99 1014.5
20260906065518 20 75 0.0 0.0 0.00 0.00 0.00 99 1014.5
20260906064630 20 56 1.6 1.6 0.00 0.00 0.00 99 1014.5
20260906063725 20 79 0.0 0.0 0.00 0.00 0.00 99 1014.5
20260906063307 20 75 0.0 0.0 0.00 0.00 0.00 99 1014.5
20260906062851 20 73 0.0 0.0 0.00 0.00 0.00 99 1014.5
20260906062436 20 78 0.0 0.0 0.00 0.00 0.00 99 1014.5
20260906062002 20 79 0.0 0.0 0.00 0.00 0.00 99 1014.5
20260906061531 20 78 0.0 0.0 0.00 0.00 0.00 99 1014.5
20260906061114 20 80 0.0 0.0 0.00 0.00 0.00 99 1014.5
20260906060657 20 84 0.0 0.0 0.00 0.00 0.00 99 1014.5
20260906060242 20 84 0.0 0.0 0.00 0.00 0.00 99 1014.5
20260906055825 20 84 0.0 0.0 0.00 0.00 0.00 99 1014.5
20260906055410 20 84 0.0 0.0 0.00 0.00 0.00 99 1014.5
20260906054954 20 84 0.0 0.0 0.00 0.00 0.00 99 1014.5
20260906054053 20 108 0.0 0.0 0.00 0.00 0.00 99 1014.5
20260906053639 20 82 0.0 0.0 0.00 0.00 0.00 99 1014.2
20260906053208 21 82 0.0 0.0 0.00 0.00 0.00 99 1014.2
20260906052737 21 75 0.0 0.0 0.00 0.00 0.00 99 1014.5
20260906052306 20 83 0.0 0.0 0.00 0.00 0.00 99 1014.5
20260906051834 20 83 0.0 0.0 0.00 0.00 0.00 99 1013.8
20260906050918 21 91 0.0 0.0 0.00 0.00 0.00 99 1014.5
20260906050503 21 101 0.0 0.0 0.00 0.00 0.00 99 1014.2
20260906050033 21 91 0.0 0.0 0.00 0.00 0.00 99 1014.2
20260906045616 21 77 0.0 0.0 0.00 0.00 0.00 99 1014.2
20260906045159 21 88 0.0 1.6 0.00 0.00 0.00 99 1014.2
20260906044743 21 80 0.0 0.0 0.00 0.00 0.00 99 1014.2
20260906044312 21 77 0.0 0.0 0.00 0.00 0.00 99 1014.2
20260906043840 21 78 0.0 0.0 0.00 0.00 0.00 99 1014.5
20260906043410 21 77 0.0 0.0 0.00 0.00 0.00 99 1014.2
20260906042509 21 75 0.0 0.0 0.00 0.00 0.00 99 1014.2
20260906042054 21 73 0.0 0.0 0.00 0.00 0.00 99 1014.2
20260906041622 21 79 0.0 0.0 0.00 0.00 0.00 99 1014.2
20260906041136 21 81 0.0 0.0 0.00 0.00 0.00 99 1014.2
20260906040719 21 81 0.0 0.0 0.00 0.00 0.00 99 1014.2
20260906040302 21 81 0.0 0.0 0.00 0.00 0.00 99 1014.2
20260906035832 21 81 0.0 0.0 0.00 0.00 1.32 99 1013.8
20260906035415 21 81 0.0 0.0 0.00 0.00 1.32 99 1014.2
20260906034958 21 81 0.0 0.0 0.00 0.00 1.32 99 1013.8
20260906034545 21 81 0.0 0.0 0.00 0.00 1.32 99 1014.2
20260906033610 21 83 0.0 0.0 0.00 0.00 1.32 99 1014.2
20260906033156 21 78 0.0 0.0 0.00 0.00 1.32 98 1014.2
20260906032721 21 79 0.0 0.0 0.00 0.00 1.32 98 1013.8
20260906032250 21 80 0.0 0.0 0.00 0.00 1.32 97 1014.2
20260906031348 22 78 0.0 0.0 0.00 0.00 1.32 97 1014.2
20260906030444 22 78 0.0 0.0 0.00 0.00 1.32 96 1014.2
20260906030027 22 79 0.0 0.0 0.00 0.00 1.32 96 1014.2
20260906025556 22 96 0.0 0.0 0.00 0.00 1.32 96 1014.5
20260906025123 22 65 3.2 3.2 0.00 0.00 1.32 95 1014.5
20260906024650 22 77 0.0 0.0 0.00 0.00 1.32 95 1014.5
20260906024219 22 69 3.2 3.2 0.00 0.00 1.32 96 1014.5
20260906023746 22 71 1.6 3.2 0.00 0.00 1.32 96 1014.5
20260906022844 22 68 0.0 0.0 0.00 0.00 1.32 99 1014.2
20260906022412 22 315 4.8 4.8 0.00 0.00 1.32 99 1014.5
20260906021956 22 4 6.4 6.4 0.00 0.00 1.32 99 1014.2
20260906021526 22 32 0.0 1.6 0.00 0.00 1.32 99 1014.2
20260906021109 21 73 0.0 0.0 0.00 0.00 1.32 99 1014.2
20260906020621 21 85 0.0 0.0 0.00 0.00 1.32 99 1014.2
20260906020150 21 85 0.0 0.0 0.00 0.00 1.32 99 1013.8
20260906015305 21 85 0.0 0.0 0.00 0.00 1.32 99 1013.8
20260906014829 21 85 0.0 0.0 0.00 0.00 1.32 99 1013.8
20260906013941 21 86 0.0 0.0 0.00 0.00 1.32 99 1013.8
20260906013524 21 86 0.0 0.0 0.00 0.00 1.32 99 1013.8
20260906013051 22 85 0.0 0.0 0.00 0.00 1.32 99 1013.8
20260906011731 22 89 0.0 0.0 0.00 0.00 1.32 99 1013.8
20260906011245 22 100 0.0 0.0 0.00 0.00 1.32 99 1013.8
20260906010341 22 82 0.0 0.0 0.00 0.00 1.32 99 1013.8
20260906005925 22 82 0.0 0.0 0.00 0.00 1.32 99 1013.5
20260906005508 22 82 0.0 0.0 0.00 0.00 1.32 99 1013.2
20260906005036 22 80 0.0 0.0 0.00 0.00 1.32 99 1013.2
20260906004132 22 80 0.0 0.0 0.00 0.00 1.32 99 1013.2
20260906003714 22 83 0.0 0.0 0.00 0.00 1.32 99 1013.5
20260906003258 22 88 0.0 0.0 0.00 0.00 1.32 99 1013.2
20260906002811 22 88 0.0 0.0 0.00 0.00 1.32 98 1013.5
20260906002354 22 88 0.0 0.0 0.00 0.00 1.32 98 1013.2
20260906001937 22 88 0.0 0.0 0.00 0.00 1.32 98 1013.2
20260906001521 22 92 0.0 0.0 0.00 0.00 1.32 98 1013.2
20260906001049 22 82 0.0 0.0 0.00 0.00 1.32 97 1013.2
20260906000204 23 81 0.0 0.0 0.00 0.00 1.32 97 1013.2
20260905235744 23 83 0.0 0.0 0.00 0.00 1.32 96 1013.2
20260905235310 23 83 0.0 0.0 0.00 0.00 1.32 96 1013.5
20260905234839 23 82 0.0 0.0 0.00 0.00 1.32 96 1013.2
20260905234423 23 82 0.0 0.0 0.00 0.00 1.32 95 1013.2
20260905234008 24 80 0.0 0.0 0.00 0.00 1.32 94 1013.5
20260905233553 24 82 0.0 0.0 0.00 0.00 1.32 93 1013.2
20260905232654 25 82 0.0 0.0 0.00 0.00 1.32 91 1013.2
20260905232226 25 82 0.0 0.0 0.00 0.00 1.32 91 1013.2
20260905231756 25 82 0.0 0.0 0.00 0.00 1.32 90 1013.2
20260905230911 25 82 0.0 0.0 0.00 0.00 1.32 89 1013.2
20260905230441 25 82 0.0 0.0 0.00 0.00 1.32 87 1013.2
20260905230010 25 82 0.0 0.0 0.00 0.00 1.32 87 1013.2
20260905225055 26 81 0.0 0.0 0.00 0.00 1.32 86 1013.2
20260905224638 26 81 0.0 0.0 0.00 0.00 1.32 85 1013.2
20260905224220 26 88 0.0 0.0 0.00 0.00 1.32 82 1013.2
20260905223802 27 91 0.0 0.0 0.00 0.00 1.32 79 1013.2
20260905223333 27 80 0.0 0.0 0.00 0.00 1.32 76 1013.2
20260905222917 28 88 0.0 0.0 0.00 0.00 1.32 72 1013.2
20260905222503 28 69 0.0 0.0 0.00 0.00 1.32 74 1013.2
20260905222047 29 91 0.0 0.0 0.00 0.00 1.32 69 1013.2
20260905221632 28 80 0.0 0.0 0.00 0.00 1.32 71 1013.2
20260905220730 28 70 0.0 0.0 0.00 0.00 1.32 70 1013.2
20260905215838 29 80 0.0 0.0 0.00 0.00 1.32 73 1013.5
20260905214951 29 79 0.0 0.0 0.00 0.00 1.32 74 1013.5
20260905214521 29 77 0.0 0.0 0.00 0.00 1.32 69 1013.2
20260905214105 28 111 0.0 1.6 0.00 0.00 1.32 70 1013.2
20260905213636 28 70 0.0 1.6 0.00 0.00 1.32 75 1013.2
20260905212252 28 81 0.0 0.0 0.00 0.00 1.32 74 1013.2
20260905211407 28 77 0.0 0.0 0.00 0.00 1.32 74 1013.2
20260905210950 28 75 0.0 0.0 0.00 0.00 1.32 74 1013.2
20260905210536 28 87 0.0 0.0 0.00 0.00 1.32 73 1013.2
20260905210105 28 94 0.0 0.0 0.00 0.00 1.32 70 1013.2
20260905205617 28 80 0.0 0.0 0.00 0.00 1.32 71 1013.2
20260905204719 29 180 3.2 3.2 0.00 0.00 1.32 68 1013.2
20260905204301 29 74 0.0 0.0 0.00 0.00 1.32 67 1013.2
20260905203845 28 48 1.6 1.6 0.00 0.00 1.32 69 1013.5
20260905203430 28 86 0.0 0.0 0.00 0.00 1.32 68 1013.2
20260905203015 28 119 1.6 1.6 0.00 0.00 1.32 70 1013.2
20260905202601 29 95 0.0 0.0 0.00 0.00 1.32 66 1013.2
20260905202146 30 119 1.6 1.6 0.00 0.00 1.32 66 1013.5
20260905201732 30 108 0.0 1.6 0.00 0.00 1.32 72 1013.5
20260905201316 29 55 0.0 0.0 0.00 0.00 1.32 69 1013.2
20260905200846 29 74 0.0 0.0 0.00 0.00 1.32 69 1013.5
20260905200401 30 75 0.0 1.6 0.00 0.00 1.32 66 1013.5
20260905195946 29 81 0.0 0.0 0.00 0.00 1.32 65 1013.5
20260905195516 29 72 0.0 0.0 0.00 0.00 1.32 69 1013.8
20260905195100 30 250 3.2 4.8 0.00 0.00 1.32 65 1013.8
20260905194155 29 241 4.8 4.8 0.00 0.00 1.32 67 1013.8
20260905193708 29 216 3.2 3.2 0.00 0.00 1.32 68 1013.8
20260905193252 29 103 3.2 3.2 0.00 0.00 1.32 67 1013.8
20260905191933 27 87 0.0 0.0 0.00 0.00 1.32 75 1013.8
20260905191049 27 81 0.0 0.0 0.00 0.00 1.32 74 1014.2
20260905190617 27 226 3.2 3.2 0.00 0.00 1.32 75 1014.2
20260905185730 27 86 0.0 0.0 0.00 0.00 1.32 76 1014.2
20260905185314 27 82 0.0 0.0 0.00 0.00 1.32 77 1014.2
20260905184843 27 76 0.0 0.0 0.00 0.00 1.32 72 1014.5
20260905184429 27 110 0.0 1.6 0.00 0.00 1.32 73 1014.5
20260905183958 28 123 0.0 1.6 0.00 0.00 1.32 70 1014.5
20260905183527 28 86 0.0 0.0 0.00 0.00 1.32 70 1014.5
20260905183110 28 37 1.6 1.6 0.00 0.00 1.32 74 1014.5
20260905182652 28 74 0.0 1.6 0.00 0.00 1.32 72 1014.5
20260905182223 28 71 0.0 0.0 0.00 0.00 1.32 77 1014.5
20260905181805 27 85 0.0 1.6 0.00 0.00 1.32 74 1014.5
20260905180914 27 104 1.6 3.2 0.00 0.00 1.32 75 1014.9
20260905180012 28 236 6.4 6.4 0.00 0.00 1.32 76 1014.5
20260905175557 27 82 0.0 1.6 0.00 0.00 1.32 73 1014.5
20260905175143 27 295 4.8 4.8 0.00 0.00 1.32 72 1014.5
20260905174726 27 102 3.2 4.8 0.00 0.00 1.32 78 1014.5
20260905174257 27 99 1.6 3.2 0.00 0.00 1.32 76 1014.9
20260905173842 26 89 3.2 3.2 0.00 0.00 1.32 75 1014.9
20260905172955 26 111 3.2 6.4 0.00 0.00 1.32 76 1014.9
20260905172539 27 80 6.4 9.7 0.00 0.00 1.32 75 1014.5
20260905172109 27 94 0.0 0.0 0.00 0.00 1.32 75 1014.9
20260905171651 27 131 1.6 3.2 0.00 0.00 1.32 74 1015.2
20260905171238 27 232 8.0 9.7 0.00 0.00 1.32 75 1015.2
20260905170805 26 30 1.6 1.6 0.00 0.00 1.32 78 1015.2
20260905170335 26 121 1.6 1.6 0.00 0.00 1.32 79 1015.2
20260905165918 26 24 3.2 3.2 0.00 0.00 1.32 77 1015.2
20260905165501 26 27 1.6 3.2 0.00 0.00 1.32 82 1015.2
20260905165045 26 117 0.0 0.0 0.00 0.00 1.32 79 1015.5
20260905164629 26 171 6.4 6.4 0.00 0.00 1.32 80 1015.5
20260905164214 26 214 6.4 9.7 0.00 0.00 1.32 79 1015.5
20260905163742 25 128 3.2 6.4 0.00 0.00 1.32 81 1015.5
20260905163312 26 120 1.6 3.2 0.00 0.00 1.32 81 1015.5
20260905162840 26 223 4.8 9.7 0.00 0.00 1.32 79 1015.2
20260905145017 22 60 3.2 4.8 0.00 0.00 1.32 99 1015.2
20260905144559 22 60 3.2 4.8 0.00 0.00 1.32 99 1015.2
20260905144144 22 60 3.2 4.8 0.00 0.00 1.32 99 1015.2
20260905143726 21 79 1.6 3.2 0.00 0.00 1.32 99 1015.2
20260905143256 21 78 0.0 0.0 0.00 0.00 1.32 99 1014.9
20260905142823 21 81 0.0 0.0 0.00 0.00 1.32 99 1014.9
20260905142407 21 196 3.2 3.2 0.00 0.00 1.32 99 1014.9
20260905141948 21 75 0.0 0.0 0.00 0.00 1.32 99 1014.9
20260905141533 21 102 1.6 3.2 0.00 0.00 1.32 99 1014.9
20260905140631 21 126 4.8 6.4 0.00 0.00 1.32 99 1014.5
20260905140215 21 100 0.0 1.6 0.00 0.00 1.32 99 1014.5
20260905135756 21 127 1.6 3.2 0.00 0.00 1.32 99 1014.5
20260905135338 21 90 3.2 3.2 0.00 0.00 1.32 99 1014.2
20260905134450 21 93 0.0 0.0 0.00 0.00 1.32 99 1014.2
20260905134033 21 130 3.2 3.2 0.00 0.00 1.32 99 1014.9
20260905133600 21 98 1.6 1.6 0.00 0.00 1.32 99 1014.9